Regional Weather Roundup
Issued by NWS Little Rock, AR

Home | Current Version | Previous Version | Text Only | Print | Product List | Glossary Off
Versions: 1 2 3 4 5 6 7 8 9 10 11 12 13 14 15 16 17 18 19 20 21 22 23 24 25 26 27 28 29 30 31 32 33 34 35 36 37 38 39 40 41 42 43 44 45 46 47 48 49 50

000
ASUS44 KLZK 260805
RWRLZK

WEATHER ROUNDUP FOR ARKANSAS
NATIONAL WEATHER SERVICE LITTLE ROCK AR
200 AM CST WED NOV 26 2014

NOTE: "FAIR" INDICATES FEW OR NO CLOUDS BELOW 12,000 FEET WITH NO
SIGNIFICANT WEATHER AND/OR OBSTRUCTIONS TO VISIBILITY.

ARZ001-003-010-029-260900-
NORTHWEST ARKANSAS

CITY           SKY/WX    TMP DP  RH WIND       PRES   REMARKS
FAYETTEVILLE   PTCLDY    27  25  92 CALM      30.04F
FORT SMITH     CLEAR     33  27  78 NE6       30.07F WCI  28
HARRISON       CLEAR     28  24  85 SE6       30.05F WCI  22
BENTONVILLE    PTCLDY    32  21  64 S3        30.03F
ROGERS         PTCLDY    34  24  67 SE8       30.03F WCI  27
SILOAM SPGS    PTCLDY    36  19  51 SE6       30.03F
HIGHFILL       PTCLDY    33  24  69 S3        30.02F
$$

ARZ004-005-016-260900-
NORTH CENTRAL ARKANSAS

CITY           SKY/WX    TMP DP  RH WIND       PRES   REMARKS
BATESVILLE     CLEAR     27  21  80 CALM      30.13F
FLIPPIN        MOCLDY    27  19  74 E5        30.08F WCI  21
MTN HOME       MOCLDY    31  21  66 SE6       30.07F WCI  25
$$

ARZ040-041-260900-
WEST CENTRAL ARKANSAS

CITY           SKY/WX    TMP DP  RH WIND       PRES   REMARKS
MENA             N/A     32  32 100 CALM      30.09S
MOUNT IDA      PTCLDY    29  26  89 CALM      30.08F
$$

ARZ009-017-025-026-028-260900-
NORTHEAST ARKANSAS

CITY           SKY/WX    TMP DP  RH WIND       PRES   REMARKS
CORNING        FAIR      28  28 100 SE3       30.14F
JONESBORO      CLEAR     30  26  85 CALM      30.15S
NEWPORT        CLEAR     32  30  92 CALM      30.16S FOG
WALNUT RIDGE   CLEAR     30  25  80 CALM      30.13F
BLYTHEVILLE    CLEAR     37  29  72 S3        30.16F
$$

ARZ022-023-033-042-044-260900-
CENTRAL ARKANSAS

CITY           SKY/WX    TMP DP  RH WIND       PRES   REMARKS
LITTLE ROCK    PTCLDY    33  28  81 CALM      30.15S
N LITTLE ROCK    N/A     37  31  81 SW3       30.15S
JACKSONVILLE   MOCLDY    29  26  89 CALM      30.14S
SEARCY         CLEAR     27  26  96 CALM      30.16S
HOT SPRINGS    PTCLDY    33  30  88 E5        30.12F WCI  29
RUSSELLVILLE   PTCLDY    29  26  89 CALM      30.10F
CLINTON        FAIR      27  25  93 CALM      30.15F
$$

ARZ036-260900-
EAST ARKANSAS

CITY           SKY/WX    TMP DP  RH WIND       PRES   REMARKS
WEST MEMPHIS   CLEAR     29  29 100 CALM      30.15S FOG
$$

ARZ050-053-066-070-073-260900-
SOUTHWEST ARKANSAS

CITY           SKY/WX    TMP DP  RH WIND       PRES   REMARKS
ARKADELPHIA    FAIR      34  34 100 CALM      30.13F
CAMDEN         PTCLDY    32  30  93 CALM      30.15R
TEXARKANA      CLEAR     40  32  73 SW8       30.12R
EL DORADO      MOCLDY    36  32  85 CALM      30.14S
DE QUEEN       PTCLDY    35  33  92 E3        30.09F
$$

ARZ056-057-069-260900-
SOUTHEAST ARKANSAS

CITY           SKY/WX    TMP DP  RH WIND       PRES   REMARKS
PINE BLUFF     MOCLDY    35  31  85 CALM      30.15S
STUTTGART      MOCLDY    37  30  75 SE6       30.15S
MONTICELLO     PTCLDY    32  29  88 CALM      30.14F

$$





USA.gov is the U.S. government's official web portal to all federal, state and local government web resources and services.